Location: Newark
(49.1022°N, 20.8503°E)
Time: 14:40:43
(UTC+00:00)

Envisat - Visible Passes

Search period start: 27 September 2020 00:00
Search period end: 07 October 2020 00:00
Orbit: 764 x 766 km, 98.1° (Epoch: 27 September)

Date Brightness Start Highest point End Pass type
(mag) Time Alt. Az. Time Alt. Az. Time Alt. Az.
27 Sep 5.4 03:55:20 10° NE 03:59:44 29° E 04:04:07 10° SSE visible
27 Sep 5.9 16:54:01 10° SW 16:57:58 23° W 17:01:57 10° NW visible
28 Sep 6.3 03:19:49 10° NE 03:22:31 14° E 03:25:12 10° ESE visible
29 Sep 6.4 17:21:12 10° WSW 17:23:44 14° W 17:26:17 10° NW visible
30 Sep 5.8 03:44:13 10° NE 03:48:16 23° E 03:52:18 10° SE visible
30 Sep 5.5 16:42:11 10° SSW 16:46:29 28° W 16:50:51 10° NW visible
01 Oct 6.6 03:09:25 10° ENE 03:10:59 11° E 03:12:32 10° ESE visible
02 Oct 6.2 17:08:57 10° SW 17:12:13 17° W 17:15:31 10° NW visible
03 Oct 6.1 03:33:11 10° NE 03:36:47 19° E 03:40:22 10° SE visible
05 Oct 5.2 03:57:58 10° NNE 04:02:29 31° E 04:06:57 10° SSE visible
05 Oct 6.0 16:56:55 10° SW 17:00:43 21° W 17:04:33 10° NW visible
06 Oct 6.2 03:22:18 10° NE 03:25:17 15° E 03:28:14 10° ESE visible
